AAL2333 KCLT-KDCA

Flight info

Callsign AAL2333
Flight time 1h 3m
Altitude 33000
Route KILNS5 AUDII WAVES CAPSS4
Aircraft A320/M-SDE3FGHIRWY/LB1

Departure

Time 2026-04-25 22:40
Airport Charlotte Douglas International Airport (KCLT)

Arrival

Time 2026-04-25 23:43
Airport Ronald Reagan Washington National Airport (KDCA)
Time Latitude Longitude Altitude Speed Heading
2026-04-25 22:21 35.22040 -80.93884 758 ft 0 kts 303°
2026-04-25 22:27 35.22036 -80.93876 758 ft 2 kts 303°
2026-04-25 22:27 35.22028 -80.93861 758 ft 2 kts 303°
2026-04-25 22:27 35.22020 -80.93845 758 ft 2 kts 303°
2026-04-25 22:28 35.22014 -80.93835 758 ft 2 kts 293°
2026-04-25 22:28 35.22013 -80.93817 758 ft 2 kts 251°
2026-04-25 22:28 35.22016 -80.93810 758 ft 2 kts 236°
2026-04-25 22:28 35.22027 -80.93797 758 ft 2 kts 201°
2026-04-25 22:29 35.22036 -80.93795 758 ft 1 kts 179°
2026-04-25 22:29 35.22042 -80.93796 758 ft 0 kts 179°
2026-04-25 22:31 35.22039 -80.93796 758 ft 5 kts 180°
2026-04-25 22:31 35.21961 -80.93862 758 ft 13 kts 228°
2026-04-25 22:32 35.21917 -80.93922 758 ft 3 kts 228°
2026-04-25 22:32 35.21895 -80.93941 758 ft 4 kts 195°
2026-04-25 22:32 35.21854 -80.93961 758 ft 7 kts 216°
2026-04-25 22:32 35.21846 -80.93969 758 ft 0 kts 223°
2026-04-25 22:33 35.21843 -80.93973 758 ft 0 kts 223°
2026-04-25 22:33 35.21831 -80.93982 758 ft 3 kts 201°
2026-04-25 22:33 35.21778 -80.93995 758 ft 12 kts 207°
2026-04-25 22:34 35.21702 -80.93979 758 ft 12 kts 136°
2026-04-25 22:34 35.21639 -80.93907 758 ft 14 kts 139°
2026-04-25 22:34 35.21530 -80.93791 758 ft 23 kts 138°
2026-04-25 22:34 35.21418 -80.93671 758 ft 16 kts 147°
2026-04-25 22:35 35.21309 -80.93646 758 ft 15 kts 176°
2026-04-25 22:35 35.21202 -80.93638 758 ft 15 kts 176°
2026-04-25 22:35 35.21097 -80.93628 758 ft 15 kts 175°
2026-04-25 22:35 35.20945 -80.93615 758 ft 28 kts 176°
2026-04-25 22:36 35.20737 -80.93596 758 ft 29 kts 176°
2026-04-25 22:36 35.20544 -80.93580 758 ft 26 kts 176°
2026-04-25 22:36 35.20365 -80.93565 758 ft 24 kts 176°
2026-04-25 22:36 35.20210 -80.93552 758 ft 17 kts 176°
2026-04-25 22:37 35.20130 -80.93536 758 ft 7 kts 148°
2026-04-25 22:37 35.20119 -80.93523 758 ft 0 kts 121°
2026-04-25 22:38 35.20113 -80.93505 758 ft 9 kts 104°
2026-04-25 22:38 35.20129 -80.93422 758 ft 8 kts 38°
2026-04-25 22:38 35.20157 -80.93414 758 ft 0 kts 354°
2026-04-25 22:39 35.20190 -80.93417 758 ft 22 kts 356°
2026-04-25 22:39 35.20634 -80.93457 758 ft 103 kts 356°
2026-04-25 22:39 35.21566 -80.93538 781 ft 164 kts 355°
2026-04-25 22:40 35.22744 -80.93627 1436 ft 169 kts 358°
2026-04-25 22:40 35.23849 -80.93424 2396 ft 161 kts 13°
2026-04-25 22:40 35.24913 -80.92988 2984 ft 170 kts 16°
2026-04-25 22:40 35.26075 -80.92437 3458 ft 189 kts 22°
2026-04-25 22:41 35.27025 -80.91245 3939 ft 213 kts 63°
2026-04-25 22:41 35.27370 -80.89423 4430 ft 233 kts 81°
2026-04-25 22:41 35.27542 -80.87347 4850 ft 257 kts 82°
2026-04-25 22:41 35.27746 -80.85075 5411 ft 277 kts 81°
2026-04-25 22:42 35.28015 -80.82696 6088 ft 290 kts 79°
2026-04-25 22:42 35.28336 -80.80230 6957 ft 296 kts 79°
2026-04-25 22:42 35.28683 -80.77739 7821 ft 302 kts 78°
2026-04-25 22:42 35.29048 -80.75205 8655 ft 307 kts 78°
2026-04-25 22:43 35.29428 -80.72629 9475 ft 313 kts 79°
2026-04-25 22:43 35.29815 -80.70008 10274 ft 318 kts 79°
2026-04-25 22:43 35.30217 -80.67283 10816 ft 333 kts 79°
2026-04-25 22:43 35.30637 -80.64421 11246 ft 350 kts 80°
2026-04-25 22:44 35.31074 -80.61444 11905 ft 358 kts 80°
2026-04-25 22:44 35.31513 -80.58448 12672 ft 362 kts 80°
2026-04-25 22:44 35.31956 -80.55410 13409 ft 367 kts 80°
2026-04-25 22:44 35.32412 -80.52293 14123 ft 372 kts 80°
2026-04-25 22:45 35.32975 -80.49179 14810 ft 378 kts 75°
2026-04-25 22:45 35.33744 -80.46090 15492 ft 383 kts 70°
2026-04-25 22:45 35.34661 -80.43021 16168 ft 387 kts 69°
2026-04-25 22:45 35.35616 -80.39945 16824 ft 392 kts 69°
2026-04-25 22:46 35.36589 -80.36811 17467 ft 396 kts 69°
2026-04-25 22:46 35.37574 -80.33614 18098 ft 401 kts 70°
2026-04-25 22:46 35.38558 -80.30389 18699 ft 405 kts 70°
2026-04-25 22:46 35.39541 -80.27148 19288 ft 410 kts 70°
2026-04-25 22:47 35.40532 -80.23873 19859 ft 414 kts 70°
2026-04-25 22:47 35.41546 -80.20516 20417 ft 418 kts 70°
2026-04-25 22:47 35.42603 -80.17189 20950 ft 423 kts 64°
2026-04-25 22:47 35.44137 -80.14095 21482 ft 426 kts 53°
2026-04-25 22:48 35.45916 -80.11174 22009 ft 430 kts 51°
2026-04-25 22:48 35.47751 -80.08242 22506 ft 434 kts 51°
2026-04-25 22:48 35.49563 -80.05288 22999 ft 438 kts 52°
2026-04-25 22:48 35.51390 -80.02235 23484 ft 442 kts 53°
2026-04-25 22:49 35.53186 -79.99180 23949 ft 446 kts 53°
2026-04-25 22:49 35.55010 -79.96045 24414 ft 450 kts 53°
2026-04-25 22:49 35.56809 -79.92931 24857 ft 453 kts 53°
2026-04-25 22:49 35.58647 -79.89738 25297 ft 457 kts 54°
2026-04-25 22:50 35.60487 -79.86538 25714 ft 461 kts 54°
2026-04-25 22:50 35.62352 -79.83287 26130 ft 465 kts 54°
2026-04-25 22:50 35.64227 -79.80016 26526 ft 469 kts 54°
2026-04-25 22:50 35.66088 -79.76769 26977 ft 470 kts 54°
2026-04-25 22:51 35.67996 -79.73437 27535 ft 469 kts 54°
2026-04-25 22:51 35.69852 -79.70189 28062 ft 469 kts 54°
2026-04-25 22:51 35.71722 -79.66912 28554 ft 469 kts 54°
2026-04-25 22:51 35.73617 -79.63591 29046 ft 469 kts 54°
2026-04-25 22:52 35.75476 -79.60332 29524 ft 469 kts 54°
2026-04-25 22:52 35.77362 -79.57021 30004 ft 469 kts 54°
2026-04-25 22:52 35.79230 -79.53738 30461 ft 469 kts 54°
2026-04-25 22:52 35.81106 -79.50435 30911 ft 469 kts 54°
2026-04-25 22:53 35.82975 -79.47141 31339 ft 469 kts 54°
2026-04-25 22:53 35.84850 -79.43837 31706 ft 471 kts 54°
2026-04-25 22:53 35.86730 -79.40524 32055 ft 473 kts 55°
2026-04-25 22:53 35.88624 -79.37176 32405 ft 475 kts 55°
2026-04-25 22:54 35.90505 -79.33850 32733 ft 477 kts 56°
2026-04-25 22:54 35.92414 -79.30473 32859 ft 479 kts 56°
2026-04-25 22:54 35.96247 -79.23676 32864 ft 479 kts 56°
2026-04-25 22:55 36.00055 -79.16915 32865 ft 479 kts 56°
2026-04-25 22:55 36.03846 -79.10182 32865 ft 477 kts 56°
2026-04-25 22:56 36.07629 -79.03440 32868 ft 475 kts 57°
2026-04-25 22:56 36.11367 -78.96764 32876 ft 472 kts 57°
2026-04-25 22:57 36.15097 -78.90082 32891 ft 470 kts 57°
2026-04-25 22:57 36.18960 -78.83609 32899 ft 471 kts 50°
2026-04-25 22:58 36.23520 -78.77806 32897 ft 471 kts 40°
2026-04-25 22:58 36.28608 -78.72764 32886 ft 471 kts 36°
2026-04-25 22:59 36.33796 -78.67844 32874 ft 471 kts 36°
2026-04-25 22:59 36.38964 -78.62891 32867 ft 471 kts 37°
2026-04-25 23:00 36.44144 -78.57889 32865 ft 471 kts 37°
2026-04-25 23:00 36.49272 -78.52918 32865 ft 471 kts 37°
2026-04-25 23:01 36.54446 -78.47897 32869 ft 471 kts 37°
2026-04-25 23:01 36.59579 -78.42905 32878 ft 471 kts 37°
2026-04-25 23:02 36.64725 -78.37892 32893 ft 470 kts 37°
2026-04-25 23:02 36.69902 -78.32840 32904 ft 470 kts 37°
2026-04-25 23:03 36.75046 -78.27812 32912 ft 470 kts 37°
2026-04-25 23:03 36.78941 -78.23998 32916 ft 470 kts 37°
2026-04-25 23:04 36.83418 -78.19607 32918 ft 470 kts 37°
2026-04-25 23:04 36.88692 -78.14782 32912 ft 469 kts 30°
2026-04-25 23:05 36.91303 -78.12369 32899 ft 470 kts 44°
2026-04-25 23:05 36.93402 -78.09222 32893 ft 468 kts 60°
2026-04-25 23:05 36.94931 -78.05650 32672 ft 465 kts 68°
2026-04-25 23:05 36.96255 -78.01981 32425 ft 465 kts 70°
2026-04-25 23:06 36.97535 -77.98294 32177 ft 465 kts 70°
2026-04-25 23:06 36.98821 -77.94577 31925 ft 465 kts 70°
2026-04-25 23:06 37.00121 -77.90825 31673 ft 466 kts 70°
2026-04-25 23:06 37.01400 -77.87144 31424 ft 467 kts 70°
2026-04-25 23:07 37.02700 -77.83412 31175 ft 467 kts 70°
2026-04-25 23:07 37.04008 -77.79675 30943 ft 467 kts 70°
2026-04-25 23:07 37.07249 -77.72686 30716 ft 469 kts 47°
2026-04-25 23:08 37.09713 -77.70028 30433 ft 466 kts 32°
2026-04-25 23:08 37.12570 -77.68119 30052 ft 463 kts 20°
2026-04-25 23:08 37.15532 -77.66637 29566 ft 463 kts 18°
2026-04-25 23:08 37.18547 -77.65216 28996 ft 464 kts 17°
2026-04-25 23:09 37.21538 -77.63782 28397 ft 464 kts 18°
2026-04-25 23:09 37.24538 -77.62302 27777 ft 464 kts 18°
2026-04-25 23:09 37.27526 -77.60796 27138 ft 464 kts 19°
2026-04-25 23:09 37.30507 -77.59272 26577 ft 462 kts 19°
2026-04-25 23:10 37.33464 -77.57751 26115 ft 457 kts 19°
2026-04-25 23:10 37.36380 -77.56246 25645 ft 452 kts 19°
2026-04-25 23:10 37.39272 -77.54751 25173 ft 448 kts 19°
2026-04-25 23:10 37.42115 -77.53279 24708 ft 443 kts 19°
2026-04-25 23:11 37.44968 -77.51801 24238 ft 439 kts 19°
2026-04-25 23:11 37.47752 -77.50360 23772 ft 435 kts 19°
2026-04-25 23:11 37.50554 -77.48910 23298 ft 431 kts 18°
2026-04-25 23:11 37.53311 -77.47480 22825 ft 428 kts 18°
2026-04-25 23:12 37.56030 -77.46071 22355 ft 424 kts 18°
2026-04-25 23:12 37.58771 -77.44789 21880 ft 419 kts 13°
2026-04-25 23:12 37.61533 -77.43810 21736 ft 409 kts
2026-04-25 23:12 37.64303 -77.42964 21392 ft 409 kts
2026-04-25 23:13 37.67079 -77.42142 20905 ft 407 kts
2026-04-25 23:13 37.69826 -77.41321 20428 ft 405 kts
2026-04-25 23:13 37.72558 -77.40490 19954 ft 403 kts
2026-04-25 23:13 37.75256 -77.39660 19484 ft 400 kts
2026-04-25 23:14 37.77940 -77.38831 19015 ft 398 kts
2026-04-25 23:14 37.80629 -77.37999 18540 ft 396 kts
2026-04-25 23:14 37.83280 -77.37178 18070 ft 393 kts
2026-04-25 23:14 37.85917 -77.36362 17598 ft 391 kts
2026-04-25 23:15 37.88544 -77.35548 17124 ft 388 kts
2026-04-25 23:15 37.91163 -77.34737 16832 ft 379 kts
2026-04-25 23:15 37.93666 -77.33965 16850 ft 372 kts
2026-04-25 23:15 37.96184 -77.33191 16869 ft 371 kts
2026-04-25 23:16 37.98698 -77.32420 16874 ft 372 kts
2026-04-25 23:16 38.01242 -77.31639 16500 ft 373 kts
2026-04-25 23:16 38.03738 -77.30871 16007 ft 373 kts
2026-04-25 23:16 38.06238 -77.30100 15532 ft 372 kts
2026-04-25 23:17 38.08764 -77.29314 15058 ft 370 kts 10°
2026-04-25 23:17 38.11238 -77.28538 14593 ft 368 kts 10°
2026-04-25 23:17 38.13703 -77.27761 14132 ft 366 kts 10°
2026-04-25 23:17 38.16172 -77.26984 13669 ft 363 kts 10°
2026-04-25 23:18 38.18636 -77.26208 13205 ft 361 kts 10°
2026-04-25 23:18 38.21058 -77.25393 12804 ft 357 kts 12°
2026-04-25 23:18 38.23392 -77.24519 12795 ft 345 kts 13°
2026-04-25 23:18 38.25664 -77.23652 12799 ft 344 kts 13°
2026-04-25 23:19 38.27969 -77.22774 12715 ft 345 kts 13°
2026-04-25 23:19 38.30247 -77.21909 12262 ft 345 kts 13°
2026-04-25 23:19 38.32571 -77.21029 11802 ft 345 kts 13°
2026-04-25 23:19 38.34868 -77.20161 11352 ft 344 kts 13°
2026-04-25 23:20 38.37152 -77.19298 10916 ft 343 kts 14°
2026-04-25 23:20 38.39395 -77.18437 10851 ft 336 kts 14°
2026-04-25 23:20 38.41622 -77.17574 10875 ft 337 kts 14°
2026-04-25 23:20 38.43869 -77.16703 10899 ft 337 kts 14°
2026-04-25 23:21 38.46110 -77.15836 10922 ft 336 kts 14°
2026-04-25 23:21 38.48339 -77.14973 10942 ft 336 kts 14°
2026-04-25 23:21 38.50593 -77.14102 10922 ft 337 kts 14°
2026-04-25 23:21 38.52826 -77.13242 10467 ft 340 kts 15°
2026-04-25 23:22 38.55096 -77.12367 10139 ft 334 kts 15°
2026-04-25 23:22 38.57267 -77.11525 9986 ft 323 kts 15°
2026-04-25 23:22 38.59366 -77.10711 9974 ft 313 kts 15°
2026-04-25 23:23 38.63540 -77.09106 9196 ft 314 kts 16°
2026-04-25 23:23 38.65653 -77.08295 8721 ft 317 kts 17°
2026-04-25 23:23 38.67742 -77.07519 8342 ft 309 kts 14°
2026-04-25 23:23 38.69793 -77.07002 7899 ft 296 kts
2026-04-25 23:24 38.71843 -77.06738 7442 ft 294 kts
2026-04-25 23:24 38.73867 -77.06548 6994 ft 294 kts
2026-04-25 23:24 38.75903 -77.06503 6535 ft 291 kts 353°
2026-04-25 23:24 38.77816 -77.07250 6189 ft 289 kts 332°
2026-04-25 23:25 38.79549 -77.08583 6004 ft 287 kts 326°
2026-04-25 23:25 38.81193 -77.09997 5730 ft 285 kts 325°
2026-04-25 23:25 38.82798 -77.11449 5430 ft 282 kts 322°
2026-04-25 23:25 38.84282 -77.13051 5133 ft 278 kts 316°
2026-04-25 23:26 38.85675 -77.14768 4812 ft 272 kts 315°
2026-04-25 23:26 38.87000 -77.16442 4490 ft 268 kts 315°
2026-04-25 23:26 38.88334 -77.18127 4160 ft 267 kts 316°
2026-04-25 23:26 38.89661 -77.19793 3835 ft 266 kts 316°
2026-04-25 23:27 38.90978 -77.21439 3512 ft 266 kts 317°
2026-04-25 23:27 38.92305 -77.23100 3192 ft 264 kts 317°
2026-04-25 23:27 38.93608 -77.24714 2992 ft 257 kts 319°
2026-04-25 23:27 38.95071 -77.25848 2931 ft 241 kts 348°
2026-04-25 23:28 38.96698 -77.25811 2813 ft 232 kts 15°
2026-04-25 23:28 38.98107 -77.24910 2703 ft 223 kts 38°
2026-04-25 23:28 38.99078 -77.23458 2694 ft 210 kts 60°
2026-04-25 23:28 38.99540 -77.21735 2691 ft 198 kts 81°
2026-04-25 23:29 38.99492 -77.20017 2730 ft 188 kts 101°
2026-04-25 23:29 38.98998 -77.18468 2762 ft 190 kts 120°
2026-04-25 23:29 38.98137 -77.17174 2734 ft 191 kts 134°
2026-04-25 23:29 38.97162 -77.16012 2720 ft 191 kts 136°
2026-04-25 23:30 38.96180 -77.14872 2653 ft 188 kts 135°
2026-04-25 23:30 38.95255 -77.13746 2354 ft 178 kts 134°
2026-04-25 23:30 38.94376 -77.12649 2024 ft 172 kts 134°
2026-04-25 23:30 38.93543 -77.11601 1749 ft 164 kts 134°
2026-04-25 23:31 38.92785 -77.10648 1713 ft 139 kts 134°
2026-04-25 23:31 38.92115 -77.09803 1476 ft 132 kts 133°
2026-04-25 23:31 38.91482 -77.09003 1223 ft 126 kts 133°
2026-04-25 23:31 38.90852 -77.08205 1214 ft 127 kts 133°
2026-04-25 23:32 38.90219 -77.07411 1195 ft 127 kts 136°
2026-04-25 23:32 38.89478 -77.06799 1064 ft 127 kts 149°
2026-04-25 23:32 38.88800 -77.06085 854 ft 125 kts 132°
2026-04-25 23:32 38.88187 -77.05293 659 ft 125 kts 129°
2026-04-25 23:33 38.87606 -77.04492 481 ft 125 kts 138°
2026-04-25 23:33 38.86816 -77.03982 272 ft 129 kts 165°
2026-04-25 23:33 38.85921 -77.03862 181 ft 138 kts 172°
2026-04-25 23:33 38.84935 -77.03899 1029 ft 152 kts 193°
2026-04-25 23:34 38.84038 -77.04691 1889 ft 172 kts 228°
2026-04-25 23:34 38.83518 -77.06112 2479 ft 186 kts 253°
2026-04-25 23:34 38.83204 -77.07770 2824 ft 195 kts 256°
2026-04-25 23:34 38.82959 -77.09484 2991 ft 197 kts 258°
2026-04-25 23:35 38.82755 -77.11217 2991 ft 196 kts 263°
2026-04-25 23:35 38.83002 -77.12938 2975 ft 198 kts 300°
2026-04-25 23:35 38.83882 -77.14259 2998 ft 197 kts 318°
2026-04-25 23:35 38.84920 -77.15421 2994 ft 197 kts 322°
2026-04-25 23:36 38.85971 -77.16537 2990 ft 197 kts 322°
2026-04-25 23:36 38.87043 -77.17657 2987 ft 196 kts 322°
2026-04-25 23:36 38.88098 -77.18752 2985 ft 196 kts 323°
2026-04-25 23:36 38.89156 -77.19850 2983 ft 196 kts 323°
2026-04-25 23:37 38.90222 -77.20960 2982 ft 195 kts 323°
2026-04-25 23:37 38.91273 -77.22049 2982 ft 194 kts 326°
2026-04-25 23:37 38.92467 -77.22606 2944 ft 180 kts
2026-04-25 23:37 38.93539 -77.21883 2870 ft 180 kts 47°
2026-04-25 23:38 38.94199 -77.20512 2804 ft 180 kts 60°
2026-04-25 23:38 38.94790 -77.19078 2749 ft 180 kts 60°
2026-04-25 23:38 38.95393 -77.17678 2716 ft 180 kts 59°
2026-04-25 23:38 38.96012 -77.16285 2704 ft 180 kts 62°
2026-04-25 23:39 38.96173 -77.14702 2675 ft 185 kts 104°
2026-04-25 23:39 38.95390 -77.13435 2561 ft 181 kts 142°
2026-04-25 23:39 38.94374 -77.12515 2325 ft 176 kts 145°
2026-04-25 23:39 38.93290 -77.11855 2114 ft 172 kts 157°
2026-04-25 23:40 38.92240 -77.11169 1814 ft 163 kts 138°
2026-04-25 23:40 38.91516 -77.10191 1652 ft 143 kts 134°
2026-04-25 23:40 38.90822 -77.09370 1463 ft 129 kts 128°
2026-04-25 23:40 38.90294 -77.08451 1228 ft 126 kts 123°
2026-04-25 23:41 38.89814 -77.07529 1022 ft 124 kts 118°
2026-04-25 23:41 38.89320 -77.06611 836 ft 125 kts 130°
2026-04-25 23:41 38.88730 -77.05808 674 ft 125 kts 131°
2026-04-25 23:41 38.88123 -77.05008 556 ft 124 kts 133°
2026-04-25 23:42 38.87467 -77.04289 359 ft 124 kts 146°
2026-04-25 23:42 38.86652 -77.03940 168 ft 128 kts 171°
2026-04-25 23:42 38.85766 -77.03844 22 ft 122 kts 171°
2026-04-25 23:42 38.85079 -77.03767 19 ft 60 kts 175°
2026-04-25 23:43 38.84813 -77.03741 18 ft 34 kts 175°
2026-04-25 23:43 38.84578 -77.03717 16 ft 33 kts 174°
2026-04-25 23:43 38.84421 -77.03720 15 ft 13 kts 212°
2026-04-25 23:43 38.84390 -77.03809 15 ft 2 kts 268°
2026-04-25 23:44 38.84439 -77.03847 15 ft 18 kts 354°
2026-04-25 23:44 38.84612 -77.03862 18 ft 27 kts 356°
2026-04-25 23:44 38.84762 -77.03877 20 ft 13 kts 355°
2026-04-25 23:44 38.84859 -77.03888 20 ft 14 kts 355°
2026-04-25 23:45 38.84967 -77.03898 20 ft 16 kts 356°
2026-04-25 23:45 38.85095 -77.03910 20 ft 20 kts 356°
2026-04-25 23:45 38.85245 -77.03926 21 ft 23 kts 355°
2026-04-25 23:45 38.85403 -77.03938 21 ft 16 kts 356°
2026-04-25 23:46 38.85515 -77.03952 21 ft 13 kts 354°
2026-04-25 23:46 38.85553 -77.04014 21 ft 11 kts 257°
2026-04-25 23:46 38.85533 -77.04102 23 ft 7 kts 261°
2026-04-25 23:46 38.85547 -77.04137 24 ft 3 kts 316°
2026-04-25 23:47 38.85569 -77.04163 24 ft 2 kts 317°
2026-04-25 23:47 38.85573 -77.04169 24 ft 1 kts 317°
2026-04-25 23:47 38.85574 -77.04170 24 ft 0 kts 317°